GW0828 Weather Reports


time (UTC)temp
F
wind
direction
speed
knots
gust
knots
rain 1hr
in
rain 24hr
in
rain mn
in
humidity
%
barometer
mb
20260505004548 54 21 0.9 2.6 0.04 0.04 0.04 70 1010.3
20260505004036 54 58 0.0 2.6 0.04 0.04 0.04 69 1010.3
20260505003536 55 58 0.0 2.6 0.03 0.03 0.03 67 1010.3
20260505003042 55 320 0.9 7.0 0.03 0.03 0.03 67 1010.2
20260505002535 55 81 0.0 7.8 0.02 0.02 0.02 65 1010.3
20260505002034 56 85 1.7 8.7 0.02 0.02 0.02 62 1010.2
20260505001552 57 133 2.6 11.3 0.02 0.02 0.02 58 1010.1
20260505001034 58 140 4.3 11.3 0.01 0.01 0.01 53 1010.1
20260505000533 59 214 5.2 13.0 0.00 0.00 0.00 52 1009.7
20260505000054 60 200 6.1 13.0 0.00 0.00 0.00 48 1009.6
20260504235537 61 203 6.1 13.0 0.00 0.00 0.00 46 1009.4
20260504235037 61 211 5.2 13.0 0.00 0.00 0.00 44 1009.3
20260504234552 62 210 6.1 11.3 0.00 0.00 0.00 40 1009.1
20260504234036 62 164 4.3 8.7 0.00 0.00 0.00 38 1009.0
20260504233538 62 182 4.3 7.0 0.00 0.00 0.00 38 1008.9
20260504233045 62 187 2.6 5.2 0.00 0.00 0.00 40 1008.9
20260504232539 63 201 1.7 3.5 0.00 0.00 0.00 39 1008.8
20260504232039 63 223 1.7 3.5 0.00 0.00 0.00 39 1008.7
20260504231558 63 313 0.0 2.6 0.00 0.00 0.00 38 1008.7
20260504231039 63 315 0.0 2.6 0.00 0.00 0.00 39 1008.6
20260504230539 63 309 0.0 2.6 0.00 0.00 0.00 38 1008.5
20260504230049 63 325 0.0 2.6 0.00 0.00 0.00 37 1008.3
20260504225539 63 0 0.9 2.6 0.00 0.00 0.00 37 1008.2
20260504225039 64 292 0.0 5.2 0.00 0.00 0.00 38 1008.1
20260504224546 64 308 0.9 6.1 0.00 0.00 0.00 36 1008.1
20260504224039 64 292 0.9 6.1 0.00 0.00 0.00 38 1008.0
20260504223540 64 314 1.7 6.1 0.00 0.00 0.00 36 1008.1
20260504223046 64 281 0.9 6.1 0.00 0.00 0.00 37 1008.2
20260504222540 64 320 1.7 7.0 0.00 0.00 0.00 38 1008.3
20260504222039 64 302 2.6 7.0 0.00 0.00 0.00 38 1008.2
20260504221557 64 19 2.6 7.0 0.00 0.00 0.00 37 1008.3
20260504221038 63 352 0.9 5.2 0.00 0.00 0.00 39 1008.4
20260504220539 63 358 1.7 5.2 0.00 0.00 0.00 40 1008.4
20260504220052 62 336 0.9 5.2 0.00 0.00 0.00 40 1008.6
20260504215540 62 352 1.7 7.0 0.00 0.00 0.00 40 1008.7
20260504215039 62 328 1.7 7.8 0.00 0.00 0.00 40 1008.7
20260504214551 62 264 3.5 7.8 0.00 0.00 0.00 39 1009.0
20260504214040 63 263 2.6 13.0 0.00 0.00 0.00 40 1008.9
20260504213540 63 315 2.6 13.0 0.00 0.00 0.00 40 1008.8
20260504213050 63 254 5.2 13.0 0.00 0.00 0.00 39 1008.6
20260504212539 62 284 4.3 10.4 0.00 0.00 0.00 38 1008.3
20260504212039 62 309 2.6 12.2 0.00 0.00 0.00 39 1008.4
20260504211552 62 260 5.2 15.6 0.00 0.00 0.00 39 1008.2
20260504211038 62 290 7.0 15.6 0.00 0.00 0.00 40 1008.4
20260504210538 62 287 7.0 17.4 0.00 0.00 0.00 39 1008.7
20260504210105 62 246 9.6 17.4 0.00 0.00 0.00 38 1008.8
20260504205539 63 265 4.3 10.4 0.00 0.00 0.00 38 1009.1
20260504205041 62 342 4.3 10.4 0.00 0.00 0.00 39 1009.1
20260504204553 62 360 4.3 12.2 0.00 0.00 0.00 39 1009.2
20260504204038 62 308 3.5 12.2 0.00 0.00 0.00 39 1009.1
20260504203538 62 347 6.1 12.2 0.00 0.00 0.00 38 1009.1
20260504203053 62 42 5.2 10.4 0.00 0.00 0.00 38 1009.4
20260504202538 62 22 3.5 15.6 0.00 0.00 0.00 37 1009.3
20260504202038 62 17 5.2 15.6 0.00 0.00 0.00 38 1009.5
20260504201550 62 69 9.6 15.6 0.00 0.00 0.00 37 1009.6
20260504201038 62 347 4.3 13.0 0.00 0.00 0.00 44 1009.7
20260504200539 62 347 4.3 23.5 0.00 0.00 0.00 40 1009.7
20260504200059 62 47 7.8 23.5 0.00 0.00 0.00 40 1009.6
20260504195538 62 32 8.7 23.5 0.00 0.00 0.00 38 1009.6
20260504195038 63 358 7.0 13.9 0.00 0.00 0.00 39 1009.3
20260504194607 63 31 3.5 10.4 0.00 0.00 0.00 40 1009.4
20260504194038 63 15 2.6 13.9 0.00 0.00 0.00 38 1009.2
20260504193538 63 9 7.0 13.9 0.00 0.00 0.00 33 1008.9
20260504193058 63 33 7.0 15.6 0.00 0.00 0.00 35 1008.5
20260504192538 63 77 7.8 15.6 0.00 0.00 0.00 35 1008.2
20260504192038 63 2 6.1 19.1 0.00 0.00 0.00 36 1008.5
20260504191552 64 339 8.7 19.1 0.00 0.00 0.00 35 1008.5
20260504191038 65 327 6.1 14.8 0.00 0.00 0.00 30 1008.4
20260504190538 65 15 3.5 14.8 0.00 0.00 0.00 28 1007.9
20260504190117 66 352 5.2 16.5 0.00 0.00 0.00 29 1007.9
20260504185537 67 10 8.7 16.5 0.00 0.00 0.00 26 1007.9
20260504185038 68 36 9.6 14.8 0.00 0.00 0.00 25 1007.7
20260504184558 69 35 4.3 7.8 0.00 0.00 0.00 26 1007.7
20260504184038 69 17 3.5 8.7 0.00 0.00 0.00 23 1007.6
20260504183538 69 40 3.5 12.2 0.00 0.00 0.00 23 1007.5
20260504183050 69 19 4.3 12.2 0.00 0.00 0.00 23 1007.5
20260504182538 70 36 5.2 13.0 0.00 0.00 0.00 23 1007.5
20260504182038 70 312 5.2 13.0 0.00 0.00 0.00 22 1007.6
20260504181558 70 294 6.1 15.6 0.00 0.00 0.00 23 1007.5
20260504181038 71 19 6.1 15.6 0.00 0.00 0.00 23 1007.7
20260504180539 71 352 4.3 11.3 0.00 0.00 0.00 23 1007.5
20260504180143 71 18 3.5 10.4 0.00 0.00 0.00 21 1007.7
20260504175540 71 35 4.3 13.0 0.00 0.00 0.00 21 1007.5
20260504175038 72 4 4.3 14.8 0.00 0.00 0.00 19 1007.7
20260504174549 73 296 1.7 14.8 0.00 0.00 0.00 24 1007.8
20260504174040 72 21 6.1 15.6 0.00 0.00 0.00 21 1007.9
20260504173538 72 317 6.1 15.6 0.00 0.00 0.00 21 1007.9
20260504173108 72 333 6.1 14.8 0.00 0.00 0.00 21 1007.9
20260504172538 72 342 4.3 11.3 0.00 0.00 0.00 21 1007.9
20260504172038 73 313 5.2 10.4 0.00 0.00 0.00 21 1007.9
20260504171556 72 274 2.6 7.0 0.00 0.00 0.00 24 1008.0
20260504171041 72 246 0.9 9.6 0.00 0.00 0.00 26 1007.9
20260504170539 72 352 2.6 9.6 0.00 0.00 0.00 21 1008.0
20260504151038 57 0 0.0 2.6 0.00 0.00 0.00 45 1008.8
20260504150538 56 247 0.0 2.6 0.00 0.00 0.00 40 1008.8
20260504141037 48 325 0.9 3.5 0.00 0.00 0.00 55 1009.2
20260504140538 48 329 0.9 3.5 0.00 0.00 0.00 59 1009.2
20260504140112 47 358 0.0 3.5 0.00 0.00 0.00 60 1009.1
20260504130540 44 244 0.9 2.6 0.00 0.00 0.00 61 1009.2
20260504120110 41 0 0.0 0.9 0.00 0.00 0.00 60 1009.1
20260504110538 42 0 0.0 2.6 0.00 0.00 0.00 58 1009.4
20260504100542 44 347 0.9 2.6 0.00 0.00 0.00 60 1009.6
20260504081546 46 324 0.9 3.5 0.00 0.00 0.00 55 1010.5
20260504081039 47 360 0.9 2.6 0.00 0.00 0.00 56 1010.5
20260504080537 47 0 0.0 2.6 0.00 0.00 0.00 57 1010.4
20260504050537 57 317 1.7 4.3 0.00 0.00 0.00 36 1011.5
20260504050117 57 266 1.7 7.8 0.00 0.00 0.00 37 1011.5
20260504045537 58 347 1.7 7.8 0.00 0.00 0.00 36 1011.4
20260504045040 58 19 3.5 12.2 0.00 0.00 0.00 34 1011.5
20260504044545 59 347 2.6 12.2 0.00 0.00 0.00 33 1011.6
20260504044037 59 44 6.1 12.2 0.00 0.00 0.00 34 1011.4
20260504043538 58 306 4.3 8.7 0.00 0.00 0.00 34 1011.6
20260504043047 59 329 1.7 15.6 0.00 0.00 0.00 34 1011.6
20260504042538 59 246 3.5 18.2 0.00 0.00 0.00 33 1011.3
20260504042037 60 135 7.8 18.2 0.00 0.00 0.00 34 1011.0
20260504041548 60 86 7.0 13.9 0.00 0.00 0.00 33 1010.9
20260504041038 61 2 5.2 13.9 0.00 0.00 0.00 32 1011.1
20260504040537 61 79 6.1 19.1 0.00 0.00 0.00 32 1011.0
20260504040048 61 44 8.7 19.1 0.00 0.00 0.00 31 1011.3
20260504035540 61 22 8.7 20.0 0.00 0.00 0.00 31 1011.3
20260504035040 61 39 11.3 20.0 0.00 0.00 0.00 31 1011.2
20260504034550 61 83 7.8 17.4 0.00 0.00 0.00 32 1011.3
20260504034040 62 55 10.4 17.4 0.00 0.00 0.00 30 1011.5
20260504033540 63 33 7.0 18.2 0.00 0.00 0.00 28 1011.2
20260504033047 63 6 8.7 18.2 0.00 0.00 0.00 27 1011.1
20260504032538 64 79 6.1 17.4 0.00 0.00 0.00 27 1010.9
20260504032040 63 94 11.3 17.4 0.00 0.00 0.00 25 1010.7
20260504031603 63 76 6.1 12.2 0.00 0.00 0.00 25 1010.8
20260504031037 63 66 4.3 9.6 0.00 0.00 0.00 26 1010.9
20260504030538 62 1 4.3 9.6 0.00 0.00 0.00 27 1010.9
20260504030050 62 43 4.3 9.6 0.00 0.00 0.00 32 1010.9
20260504025538 62 0 0.9 5.2 0.00 0.00 0.00 32 1010.6
20260504025038 62 43 0.0 7.0 0.00 0.00 0.00 33 1010.4
20260504024546 62 35 3.5 7.0 0.00 0.00 0.00 33 1010.5
20260504024037 63 36 1.7 3.5 0.00 0.00 0.00 32 1010.4
20260504023537 63 135 0.0 1.7 0.00 0.00 0.00 35 1010.2
20260504023049 64 135 0.0 1.7 0.00 0.00 0.00 33 1010.2
20260504022540 64 0 0.0 1.7 0.00 0.00 0.00 34 1010.3
20260504022036 65 135 0.9 2.6 0.00 0.00 0.00 31 1010.2
20260504021546 65 135 0.9 2.6 0.00 0.00 0.00 26 1010.2
20260504021036 65 128 1.7 2.6 0.00 0.00 0.00 27 1010.1
20260504020538 65 0 0.9 2.6 0.00 0.00 0.00 27 1010.2
20260504020045 65 324 0.0 3.5 0.00 0.00 0.00 28 1010.2
20260504015537 65 0 0.0 4.3 0.00 0.00 0.00 26 1010.2
20260504015037 66 127 2.6 4.3 0.00 0.00 0.00 26 1009.9
20260504014549 66 111 0.0 2.6 0.00 0.00 0.00 26 1010.1
20260504014037 67 335 0.0 1.7 0.00 0.00 0.00 26 1010.1
20260504013537 67 6 0.0 0.9 0.00 0.00 0.00 25 1010.1
20260504013051 67 0 0.0 2.6 0.00 0.00 0.00 26 1010.0
20260504012537 67 0 0.0 2.6 0.00 0.00 0.00 27 1010.0
20260504012036 68 17 0.0 5.2 0.00 0.00 0.00 24 1010.1
20260504011553 68 0 0.9 5.2 0.00 0.00 0.00 24 1010.1
20260504011037 68 136 0.9 4.3 0.00 0.00 0.00 22 1010.1
20260504010538 68 140 1.7 5.2 0.00 0.00 0.00 22 1010.0
20260504010047 69 91 2.6 5.2 0.00 0.00 0.00 22 1010.1
20260504005537 69 125 1.7 3.5 0.00 0.00 0.00 21 1010.1
20260504005037 70 0 0.0 2.6 0.00 0.00 0.00 22 1010.2